[[{"header":{"parameterUnit":"m.s-1","parameterCategory":1,"la1":30.2991,"la2":30.254,"lo1":-89.0895,"lo2":-89.0444,"dy":0.0017,"dx":0.0017,"nx":28,"ny":28,"refTime":"2023-11-11T03:00:00:Z","depth":0,"parameterNumber":2,"parameterNumberName":"U-component_of_WINDS"},"data":[0,0,0,0,0,0,0,0,0,0,0,0,0,0,0,0,0,0,0,0,0,0,0,0,0,0,0,0,0,0,0,0,0,0,0,0,0,0,0,0,0,0,0,0,0,0,0,0,0,0,0,0,0,0,0,0,0,0,-2.6185,-2.6185,0,-2.6228,-2.6228,-2.6229,-2.6179,-2.6177,-2.6175,-2.6173,-2.6217,-2.622,-2.6223,0,0,0,0,0,0,0,0,0,0,0,0,0,-2.6058,-2.6061,-2.6185,-2.6185,-2.6186,-2.6228,-2.6228,-2.6229,-2.6179,-2.6177,-2.6174,-2.6172,-2.6216,-2.622,-2.6223,0,0,0,0,0,0,0,0,0,0,0,0,0,-2.6109,-2.6062,-2.6185,-2.6166,-2.6165,-2.6228,-2.6228,-2.6229,-2.6179,-2.6177,-2.6174,-2.6171,-2.6215,-2.6219,-2.6224,-2.6307,0,0,-2.6237,-2.6239,0,0,0,0,0,0,0,0,-2.6106,-2.6113,-2.6168,-2.6167,-2.6166,-2.6195,-2.62,-2.6255,-2.618,-2.6174,-2.6173,-2.617,-2.6212,-2.6216,-2.6231,-2.6309,-2.6311,-2.6237,-2.624,-2.6242,-2.6243,0,0,0,0,0,0,0,-2.6102,-2.6111,-2.6202,-2.6169,-2.6168,-2.6155,-2.6159,-2.621,-2.6208,-2.6174,-2.6171,-2.6176,-2.6211,-2.6227,-2.6231,-2.6312,-2.6237,-2.6241,-2.6244,-2.6246,-2.6462,-2.6465,0,0,0,0,0,0,-2.6101,-2.6109,-2.62,-2.6203,-2.6128,-2.616,-2.6164,-2.6189,-2.6207,-2.6208,-2.6179,-2.6174,-2.6221,-2.6226,-2.6233,-2.6333,-2.6242,-2.6246,-2.6249,-2.6459,-2.6463,-2.6466,0,0,0,0,0,0,-2.6099,-2.611,-2.6199,-2.6155,-2.6165,-2.6165,-2.6193,-2.6191,-2.6207,-2.6211,-2.621,-2.6195,-2.6219,-2.6227,-2.6289,-2.6334,-2.6248,-2.6252,-2.6455,-2.646,-2.6464,-2.6534,0,0,0,0,0,0,-2.6095,-2.6109,-2.6141,-2.6156,-2.6168,-2.6255,-2.6195,-2.6194,-2.6214,-2.6208,-2.6226,-2.6227,-2.6217,-2.6283,-2.6294,-2.6338,-2.6255,-2.6451,-2.6457,-2.6463,-2.6528,-2.654,-2.6551,0,0,0,0,0,-2.6091,-2.6159,-2.6143,-2.6154,-2.6208,-2.6258,-2.6264,-2.6252,-2.6218,-2.625,-2.6253,-2.6226,-2.6327,-2.629,-2.6301,-2.6348,-2.6448,-2.6456,-2.6462,-2.6522,-2.6538,-2.6551,0,0,0,0,0,0,-2.6149,-2.616,-2.6143,-2.6218,-2.6237,-2.6249,-2.6289,-2.6268,-2.6298,-2.6291,-2.6274,-2.6278,-2.6345,-2.6352,-2.6311,-2.643,-2.6382,-2.6392,-2.6424,-2.6439,-2.645,-2.6448,-2.6259,0,0,0,0,0,-2.6171,-2.621,-2.6218,-2.6283,-2.6293,-2.629,-2.6311,-2.63,-2.6319,-2.6327,-2.6334,-2.6354,-2.639,-2.6414,-2.6448,-2.6528,-2.6531,-2.6565,-2.6577,-2.6587,-2.6596,-2.664,-2.6656,-2.6489,-2.6489,-2.6489,0,0,-2.6216,-2.6227,-2.6253,-2.6295,-2.6309,-2.635,-2.6297,-2.6343,-2.6374,-2.6334,-2.6394,-2.64,-2.6421,-2.6493,-2.6525,-2.6501,-2.6643,-2.6596,-2.6603,-2.6608,-2.6649,-2.6665,-2.6679,-2.6494,-2.6493,-2.6492,0,0,-2.6319,-2.6331,-2.6387,-2.6402,-2.6423,-2.642,-2.6434,-2.6449,-2.6452,-2.6512,-2.6483,-2.6518,-2.6581,-2.6597,-2.6614,-2.6723,-2.67,-2.6734,-2.6797,-2.684,-2.6853,-2.6865,-2.6906,-2.692,-2.6743,-2.6743,-2.6743,0,-2.6373,-2.6435,-2.6419,-2.6468,-2.6487,-2.6452,-2.651,-2.6524,-2.6556,-2.657,-2.6542,-2.662,-2.6632,-2.6708,-2.6735,-2.6749,-2.6764,-2.6733,-2.6853,-2.6864,-2.6875,-2.6913,-2.6929,-2.6748,-2.6747,-2.6747,-2.6746,0,-2.65,-2.6543,-2.6586,-2.6617,-2.6642,-2.6694,-2.6687,-2.6713,-2.6699,-2.6699,-2.6761,-2.6773,-2.6809,-2.6826,-2.6812,-2.69,-2.6885,-2.6855,-2.6807,-2.6895,-2.6931,-2.6946,-2.6754,-2.6752,-2.6751,-2.675,0,0,-2.6643,-2.6665,-2.6681,-2.6696,-2.6716,-2.6749,-2.68,-2.6835,-2.6859,-2.6881,-2.6924,-2.6977,-2.695,-2.6969,-2.6957,-2.6995,-2.7083,-2.696,-2.696,-2.6984,-2.7182,-2.7206,-2.7223,-2.7066,-2.7069,-2.7071,-2.7181,0,-2.6749,-2.6838,-2.6825,-2.691,-2.6951,-2.6918,-2.6962,-2.698,-2.6981,-2.7015,-2.7015,-2.7055,-2.7015,-2.7026,-2.7062,-2.7064,-2.7122,-2.7056,-2.7107,-2.7109,-2.7105,-2.7242,-2.7267,-2.737,-2.7194,-2.7197,-2.7198,0,-2.6884,-2.6912,-2.7002,-2.7017,-2.7033,-2.7074,-2.7105,-2.7138,-2.7157,-2.7155,-2.7176,-2.7157,-2.7208,-2.7157,-2.7228,-2.7183,-2.7203,-2.7207,-2.7211,-2.7217,-2.7161,-2.7253,-2.7402,-2.7418,-2.722,-2.7218,-2.7217,0,-2.6982,-2.7042,-2.7104,-2.7116,-2.7135,-2.7164,-2.7173,-2.719,-2.7212,-2.7239,-2.7253,-2.7286,-2.7304,-2.733,-2.732,-2.7284,-2.7393,-2.7341,-2.7394,-2.7395,-2.7421,-2.742,-2.7577,-2.743,-2.743,-2.7429,-2.7429,0,-2.7103,-2.716,-2.7148,-2.7187,-2.7249,-2.7233,-2.7296,-2.73,-2.7315,-2.7354,-2.7326,-2.7363,-2.7348,-2.7384,-2.7376,-2.7437,-2.7445,-2.7445,-2.7443,-2.7449,-2.7449,-2.7464,-2.7457,-2.7434,-2.7433,-2.7432,-2.7431,0,-2.7224,-2.7218,-2.7284,-2.7296,-2.73,-2.7346,-2.7357,-2.7393,-2.7391,-2.744,-2.7451,-2.7449,-2.7489,-2.7482,-2.7527,-2.7522,-2.7598,-2.7586,-2.7592,-2.759,-2.7645,-2.764,-2.7818,-2.7841,-2.7677,-2.7679,-2.768,0,-2.7302,-2.7346,-2.7362,-2.7387,-2.7398,-2.7437,-2.7459,-2.7445,-2.747,-2.7495,-2.7528,-2.7566,-2.7596,-2.7663,-2.7666,-2.77,-2.769,-2.7749,-2.7695,-2.77,-2.7693,-2.7692,-2.7696,-2.7761,-2.7763,-2.7764,-2.7766,0,-2.7443,-2.7438,-2.7472,-2.7505,-2.7533,-2.7558,-2.758,-2.7601,-2.7589,-2.7618,-2.766,-2.7683,-2.7729,-2.7768,-2.78,-2.7809,-2.7786,-2.7782,-2.7797,-2.7805,-2.7808,-2.7809,-2.7624,-2.7779,-2.7778,-2.7777,-2.7776,-2.7776,-2.7547,-2.7584,-2.7602,-2.7641,-2.7656,-2.7677,-2.7712,-2.7715,-2.7749,-2.7786,-2.7775,-2.7823,-2.784,-2.7881,-2.7894,-2.7931,-2.7909,-2.7929,-2.7935,-2.7941,-2.7948,-2.78,-2.7936,-2.7936,-2.7935,-2.7935,-2.7935,0,-2.7688,-2.7698,-2.7733,-2.7766,-2.7796,-2.7771,-2.7794,-2.7822,-2.7864,-2.7883,-2.7913,-2.7961,-2.7998,-2.8003,-2.8039,-2.8068,-2.8058,-2.8078,-2.8077,-2.808,-2.7965,-2.795,-2.8085,-2.8085,-2.8085,-2.8085,-2.8085,-2.8085,-2.7765,-2.7827,-2.7824,-2.7894,-2.7903,-2.795,-2.7965,-2.7985,-2.8,-2.8055,-2.8086,-2.8089,-2.8103,-2.8139,-2.8172,-2.8172,-2.8188,-2.8212,-2.8209,-2.8102,-2.8087,-2.8073,-2.8059,-2.8215,-2.8215,-2.832,-2.8321,-2.8322]},{"header":{"parameterUnit":"m.s-1","parameterCategory":1,"la1":30.2991,"la2":30.254,"lo1":-89.0895,"lo2":-89.0444,"dy":0.0017,"dx":0.0017,"nx":28,"ny":28,"refTime":"2023-11-11T03:00:00:Z","depth":0,"parameterNumber":3,"parameterNumberName":"V-component_of_WINDS"},"data":[0,0,0,0,0,0,0,0,0,0,0,0,0,0,0,0,0,0,0,0,0,0,0,0,0,0,0,0,0,0,0,0,0,0,0,0,0,0,0,0,0,0,0,0,0,0,0,0,0,0,0,0,0,0,0,0,0,0,-3.8465,-3.8465,0,-3.8466,-3.8466,-3.8466,-3.8416,-3.8415,-3.8414,-3.8413,-3.8413,-3.8414,-3.8415,0,0,0,0,0,0,0,0,0,0,0,0,0,-3.842,-3.8422,-3.8465,-3.8465,-3.8465,-3.8466,-3.8466,-3.8466,-3.8417,-3.8415,-3.8414,-3.8412,-3.8413,-3.8414,-3.8415,0,0,0,0,0,0,0,0,0,0,0,0,0,-3.8432,-3.8422,-3.8465,-3.8441,-3.8439,-3.8466,-3.8466,-3.8466,-3.8417,-3.8415,-3.8413,-3.8411,-3.8412,-3.8414,-3.8416,-3.8466,0,0,-3.8421,-3.8422,0,0,0,0,0,0,0,0,-3.8432,-3.8434,-3.8444,-3.8443,-3.844,-3.8439,-3.845,-3.8466,-3.8418,-3.8425,-3.8413,-3.841,-3.8423,-3.8424,-3.8428,-3.8466,-3.8466,-3.8421,-3.8423,-3.8423,-3.8424,0,0,0,0,0,0,0,-3.8431,-3.8434,-3.8466,-3.8445,-3.8442,-3.843,-3.8429,-3.8453,-3.8435,-3.8424,-3.8421,-3.8422,-3.8422,-3.8427,-3.8428,-3.8466,-3.8421,-3.8423,-3.8424,-3.8425,-3.8546,-3.8548,0,0,0,0,0,0,-3.8434,-3.8434,-3.8466,-3.8466,-3.8431,-3.8432,-3.8431,-3.8442,-3.8435,-3.8432,-3.8423,-3.8419,-3.8425,-3.8426,-3.8428,-3.8487,-3.8423,-3.8425,-3.8426,-3.8544,-3.8546,-3.8549,0,0,0,0,0,0,-3.8433,-3.8437,-3.8466,-3.8449,-3.8451,-3.8435,-3.8447,-3.8443,-3.8448,-3.8434,-3.843,-3.8432,-3.8423,-3.8425,-3.8457,-3.8486,-3.8426,-3.8428,-3.8541,-3.8545,-3.8547,-3.8606,0,0,0,0,0,0,-3.8432,-3.8437,-3.8456,-3.8449,-3.8452,-3.8495,-3.8448,-3.8444,-3.8451,-3.8446,-3.8441,-3.8438,-3.8422,-3.8455,-3.8459,-3.8488,-3.8429,-3.8539,-3.8543,-3.8546,-3.8601,-3.861,-3.8618,0,0,0,0,0,-3.843,-3.8473,-3.8458,-3.8462,-3.8476,-3.8497,-3.8499,-3.8479,-3.8454,-3.8473,-3.8464,-3.8439,-3.8482,-3.8458,-3.8463,-3.8493,-3.8537,-3.8542,-3.8546,-3.8597,-3.8608,-3.8618,0,0,0,0,0,0,-3.8484,-3.8471,-3.8455,-3.8496,-3.8498,-3.8489,-3.8512,-3.8491,-3.8501,-3.8495,-3.847,-3.8469,-3.8505,-3.8502,-3.8475,-3.8541,-3.8505,-3.8511,-3.8542,-3.8553,-3.8561,-3.8562,-3.8431,0,0,0,0,0,-3.85,-3.8518,-3.8506,-3.8544,-3.8546,-3.8529,-3.8537,-3.8522,-3.8523,-3.8523,-3.8517,-3.8519,-3.8533,-3.8542,-3.8555,-3.86,-3.8598,-3.8623,-3.8631,-3.8638,-3.8644,-3.8668,-3.8678,-3.8564,-3.8564,-3.8564,0,0,-3.8535,-3.853,-3.8543,-3.8555,-3.8554,-3.8573,-3.853,-3.8552,-3.8566,-3.8527,-3.8556,-3.8552,-3.8552,-3.8591,-3.8608,-3.8589,-3.8675,-3.8644,-3.865,-3.8652,-3.8674,-3.8684,-3.8694,-3.8567,-3.8567,-3.8566,0,0,-3.8607,-3.8606,-3.8637,-3.8637,-3.8637,-3.8626,-3.8633,-3.8627,-3.8622,-3.8652,-3.8623,-3.8639,-3.8663,-3.8665,-3.8669,-3.8741,-3.8718,-3.8746,-3.8791,-3.8815,-3.8824,-3.8832,-3.8858,-3.8867,-3.8751,-3.8752,-3.8752,0,-3.865,-3.8678,-3.8655,-3.8679,-3.8685,-3.865,-3.8681,-3.8683,-3.8687,-3.8692,-3.8671,-3.8701,-3.8699,-3.8738,-3.8755,-3.876,-3.8767,-3.8747,-3.8824,-3.8832,-3.8839,-3.8864,-3.8873,-3.8755,-3.8755,-3.8754,-3.8754,0,-3.873,-3.875,-3.8775,-3.878,-3.8788,-3.8816,-3.8798,-3.8809,-3.8792,-3.8783,-3.8813,-3.8809,-3.882,-3.8828,-3.8812,-3.8865,-3.8853,-3.8829,-3.8792,-3.8854,-3.8876,-3.8886,-3.876,-3.8759,-3.8757,-3.8757,0,0,-3.8837,-3.8829,-3.8838,-3.884,-3.8837,-3.8852,-3.8878,-3.8888,-3.8899,-3.8902,-3.8923,-3.8945,-3.8922,-3.8927,-3.8911,-3.8931,-3.8989,-3.8904,-3.8904,-3.8921,-3.9047,-3.9066,-3.9077,-3.8974,-3.8976,-3.8977,-3.9047,0,-3.8907,-3.8951,-3.8931,-3.8977,-3.8995,-3.8962,-3.8984,-3.8985,-3.8977,-3.899,-3.8981,-3.8997,-3.8966,-3.8968,-3.8987,-3.8978,-3.9014,-3.8973,-3.8993,-3.8994,-3.8995,-3.9089,-3.9108,-3.9175,-3.9056,-3.9057,-3.9058,0,-3.8996,-3.9003,-3.9051,-3.9045,-3.9051,-3.9072,-3.908,-3.9093,-3.9093,-3.9086,-3.9091,-3.907,-3.9095,-3.9058,-3.9091,-3.9064,-3.9071,-3.9067,-3.9069,-3.9071,-3.903,-3.9093,-3.9196,-3.9206,-3.9072,-3.9071,-3.907,0,-3.9069,-3.9091,-3.9122,-3.9125,-3.9118,-3.9133,-3.9131,-3.9129,-3.9137,-3.9144,-3.9148,-3.9158,-3.9163,-3.9171,-3.9153,-3.9128,-3.919,-3.9151,-3.9184,-3.9185,-3.9199,-3.9198,-3.9304,-3.9203,-3.9203,-3.9203,-3.9202,0,-3.915,-3.9181,-3.9155,-3.9175,-3.9208,-3.9184,-3.9218,-3.9212,-3.921,-3.9228,-3.92,-3.9217,-3.9192,-3.9206,-3.9192,-3.9222,-3.9225,-3.922,-3.9216,-3.9222,-3.9223,-3.9227,-3.9222,-3.9205,-3.9205,-3.9204,-3.9204,0,-3.9238,-3.9222,-3.9254,-3.9245,-3.9244,-3.9268,-3.9261,-3.9278,-3.9268,-3.929,-3.9294,-3.9278,-3.9293,-3.9276,-3.9291,-3.9281,-3.9322,-3.9311,-3.9322,-3.9319,-3.9353,-3.935,-3.9466,-3.948,-3.9369,-3.937,-3.9371,0,-3.9291,-3.9314,-3.9307,-3.9317,-3.9316,-3.9332,-3.934,-3.9318,-3.9327,-3.9328,-3.9345,-3.9359,-3.9368,-3.9395,-3.9384,-3.9395,-3.9384,-3.9424,-3.9385,-3.9392,-3.9385,-3.9384,-3.9386,-3.9432,-3.9433,-3.9434,-3.9435,0,-3.9387,-3.9378,-3.939,-3.9399,-3.9409,-3.9415,-3.9419,-3.9428,-3.9405,-3.9417,-3.9432,-3.944,-3.9454,-3.9468,-3.9475,-3.9473,-3.945,-3.9447,-3.9455,-3.9463,-3.9468,-3.9466,-3.9344,-3.9445,-3.9444,-3.9443,-3.9442,-3.9442,-3.9459,-3.9478,-3.9476,-3.949,-3.9491,-3.9495,-3.9511,-3.9502,-3.9515,-3.9525,-3.9511,-3.953,-3.9529,-3.9537,-3.9538,-3.9552,-3.9535,-3.9547,-3.955,-3.9554,-3.9559,-3.9466,-3.9554,-3.9553,-3.9553,-3.9553,-3.9553,0,-3.9554,-3.9551,-3.9564,-3.957,-3.9581,-3.9559,-3.9562,-3.9573,-3.959,-3.9591,-3.9601,-3.9619,-3.9632,-3.9622,-3.9633,-3.9647,-3.9636,-3.965,-3.9649,-3.9649,-3.9573,-3.9565,-3.9658,-3.9658,-3.9658,-3.9658,-3.9658,-3.9658,-3.9604,-3.9634,-3.9625,-3.9655,-3.9652,-3.9671,-3.9675,-3.9678,-3.9679,-3.97,-3.9711,-3.9704,-3.9701,-3.9711,-3.9722,-3.9719,-3.9724,-3.9742,-3.9735,-3.9665,-3.9654,-3.9644,-3.9637,-3.9743,-3.9743,-3.9809,-3.981,-3.981]}]]